Wind_Speed
22 21 22 21 20 21 21 20 23 23 22 21 20 20 21 20 19 21 21 19 21 22 19 17 16 13 10 10 12 14 15 15 15 16 16 13 13 14 12 13 17 21 26 26 26 25 23 20 20 20 19 19 19 18 17 17 17 17 18 19 21 25 29 33 36 36 37 38 36 35 34 34 34 35 37 39 41 40 35 31 28 27 28 29 28 26 23
21 20 20 20 20 22 23 25 26 24 23 24 24 24 24 24 26 28 27 25 26 26 22 19 18 17 15 13 12 11 11 13 14 14 15 15 15 14 13 14 16 16 21 25 26 27 27 25 23 21 20 19 19 18 17 17 17 18 19 19 20 21 22 24 28 31 34 35 33 31 31 32 33 33 33 32 33 32 30 28 27 26 27 28 27 26 24
19 18 18 19 21 23 25 27 25 23 24 24 25 25 25 25 27 27 26 26 28 25 20 18 17 16 15 16 18 18 17 17 17 17 19 19 19 18 17 18 19 17 18 22 25 25 26 27 26 24 22 21 21 20 20 20 20 20 20 20 21 22 21 21 23 24 26 26 25 27 27 26 26 27 27 27 26 26 26 25 24 25 26 27 27 27 27
17 16 16 18 21 24 27 28 26 25 25 25 26 26 25 25 26 26 24 25 25 22 17 15 14 13 12 13 18 20 20 22 23 22 22 21 21 20 19 19 21 21 18 17 21 24 25 26 27 26 23 23 25 24 21 22 22 22 21 20 21 22 23 24 26 26 27 27 28 29 28 25 25 26 26 27 26 26 27 27 27 27 27 29 30 30 31
18 16 16 18 20 19 21 22 21 22 23 23 25 24 23 22 22 23 23 22 19 17 14 12 13 13 13 14 16 17 16 19 24 24 21 20 20 20 19 19 20 21 19 15 15 18 22 24 26 26 24 25 28 26 22 21 23 23 22 23 23 24 25 27 29 31 32 33 33 33 31 29 28 27 26 25 25 25 27 28 29 29 29 30 32 33 34
19 16 16 19 17 15 16 17 18 20 21 20 18 16 16 16 16 17 18 18 17 16 14 13 14 15 16 16 16 14 14 15 19 22 22 18 17 18 18 17 20 21 21 21 17 14 17 20 22 23 24 26 28 26 22 22 23 22 23 25 25 26 26 27 28 30 31 31 32 32 32 31 29 28 26 25 25 26 27 28 30 31 31 31 31 31 33
20 19 17 15 12 13 16 17 17 17 17 17 17 16 15 14 14 15 15 14 14 14 13 12 12 13 16 17 14 10 11 13 14 17 19 19 20 21 20 19 21 23 24 25 22 18 18 20 20 21 23 26 26 25 24 25 24 21 21 23 24 24 24 24 24 24 26 26 26 25 26 26 26 26 27 28 29 29 30 30 30 31 32 32 31 30 30
18 17 16 13 12 16 17 16 16 16 15 14 15 15 13 10 10 12 13 12 12 12 11 10 10 12 14 15 11 7 10 16 17 16 19 21 21 21 22 22 23 26 26 26 25 24 22 20 19 19 23 28 28 26 25 26 25 22 21 21 22 23 23 22 22 23 24 24 23 23 24 24 25 26 26 27 28 29 30 30 30 29 30 30 30 30 30
15 17 18 18 19 20 15 12 11 11 9 7 8 11 11 10 10 13 13 12 12 12 11 9 9 13 15 11 7 5 10 16 19 20 22 22 19 18 21 23 27 30 29 27 27 27 24 21 22 23 24 28 29 26 25 25 25 24 24 22 22 24 24 23 24 26 26 26 26 27 27 27 27 27 27 27 27 28 29 29 28 28 28 28 29 30 31
16 17 17 15 14 11 5 4 6 8 9 9 9 11 12 9 10 13 11 7 9 12 12 12 10 10 10 9 7 8 11 10 12 15 15 13 13 14 15 16 20 22 20 19 23 23 19 17 22 26 26 28 28 26 25 25 26 26 26 23 23 25 26 25 25 27 28 28 29 29 29 29 29 29 28 28 27 27 27 26 26 26 26 27 28 29 28
17 16 14 12 10 5 1 1 4 9 12 11 8 9 9 5 5 8 7 6 8 11 11 12 13 9 7 9 10 10 13 12 9 7 6 6 9 12 10 8 10 11 11 14 17 16 14 14 18 23 26 28 29 28 27 28 28 28 28 26 26 27 28 27 27 27 29 30 30 31 31 30 30 29 28 28 27 27 27 26 26 26 26 28 29 29 26
17 17 16 15 12 5 3 4 3 5 9 8 7 6 5 5 4 3 5 7 9 11 11 12 12 8 7 12 15 14 15 16 14 9 8 8 12 14 12 9 10 13 16 18 16 11 11 13 14 16 20 23 27 28 28 29 31 30 30 29 29 29 30 30 29 29 29 30 32 33 34 32 31 29 28 28 28 28 28 28 28 28 29 31 32 30 28
17 16 17 17 12 6 4 8 8 6 8 9 7 5 5 8 8 5 7 9 10 12 14 13 12 10 10 14 17 18 18 17 17 14 12 12 15 15 14 13 15 18 20 19 16 12 12 14 16 16 17 19 23 27 29 31 32 31 31 31 31 31 31 31 30 29 29 30 32 34 35 35 34 32 31 31 31 30 30 29 29 30 32 33 33 32 31
15 16 17 17 13 8 7 11 10 7 7 8 7 7 9 12 12 10 11 13 13 14 14 14 15 16 18 19 21 23 22 22 23 21 18 16 16 16 16 17 18 19 19 18 17 15 15 17 18 19 20 20 21 24 28 31 33 33 33 33 33 34 34 33 33 32 31 31 33 34 35 34 35 36 36 34 32 31 30 29 30 32 33 33 33 33 33
14 16 15 13 10 6 8 13 12 8 6 8 11 12 14 14 15 16 16 15 16 17 17 17 18 19 22 25 26 28 29 28 27 26 23 21 19 19 20 19 18 19 20 20 18 18 19 20 19 20 22 24 24 25 27 30 32 34 35 36 36 37 36 36 36 36 36 36 37 38 38 36 36 38 38 35 32 32 32 32 32 33 33 33 33 34 33
9 13 11 6 8 9 12 13 11 9 9 11 14 16 17 18 19 20 20 19 19 19 20 20 20 21 23 26 28 30 31 31 31 31 31 28 25 21 21 21 21 22 22 22 21 21 23 23 23 22 23 24 27 29 31 31 32 32 33 34 36 37 38 39 40 40 41 41 41 41 41 39 39 40 39 36 34 34 34 35 36 35 35 35 35 35 35
6 11 11 10 13 14 13 12 12 11 13 14 14 16 19 20 21 21 21 21 20 20 21 21 22 23 24 24 26 28 28 29 31 32 32 33 32 28 26 25 25 25 26 25 24 25 25 26 26 27 27 28 29 31 33 32 32 32 32 31 32 34 37 40 41 41 42 42 43 44 43 42 42 42 42 41 40 39 38 37 38 38 38 38 37 37 36
10 12 13 13 13 13 13 14 14 15 16 16 15 16 17 18 18 18 18 19 21 23 25 27 28 29 28 28 29 30 30 30 30 30 29 30 31 30 30 29 28 27 28 28 28 29 29 29 28 28 29 30 30 30 31 30 30 31 32 32 33 35 38 40 41 40 40 41 42 42 43 43 43 43 43 45 44 42 40 39 38 39 39 38 38 38 38
13 13 12 12 14 15 16 16 16 15 15 15 16 19 20 20 21 21 22 24 25 26 26 27 29 30 29 28 29 29 30 31 31 31 31 30 29 29 29 30 29 29 31 31 31 31 32 31 31 31 31 31 31 30 31 31 30 30 32 33 34 35 37 40 42 42 42 41 41 42 43 42 41 41 43 45 43 41 39 38 37 37 37 36 37 38 37
13 14 13 14 15 15 14 13 13 15 17 19 21 22 23 24 26 27 29 30 31 30 28 27 29 30 31 31 31 31 32 31 31 32 32 31 30 30 30 29 30 32 34 35 33 33 33 33 32 31 32 34 34 34 32 31 29 29 30 31 32 32 34 35 36 38 38 36 36 38 40 40 39 40 41 41 40 39 39 38 37 36 34 34 35 36 35
12 12 13 14 15 14 12 12 15 19 22 23 23 24 25 26 28 29 29 29 29 31 30 30 31 33 33 33 33 34 34 34 35 35 35 34 33 32 31 32 33 34 37 37 34 32 33 36 36 35 36 37 38 38 36 33 31 32 33 33 34 35 35 35 36 37 36 34 33 35 38 39 37 36 35 35 36 36 36 35 34 33 31 31 32 33 31
12 11 12 15 17 19 19 19 21 23 24 25 26 27 28 28 28 29 29 29 30 31 32 32 32 34 34 34 34 35 36 36 36 36 37 37 36 35 35 37 37 36 38 40 40 37 37 39 41 41 41 40 40 40 39 38 37 38 40 41 41 41 41 42 42 40 37 35 34 34 35 35 32 29 30 32 32 32 32 31 31 30 28 28 29 28 26
14 16 17 18 20 22 23 24 25 26 27 28 28 28 27 28 28 28 29 30 31 31 31 30 31 32 33 34 34 35 35 35 35 35 35 36 35 36 37 38 39 40 39 40 42 42 41 40 41 42 42 41 40 41 41 41 41 43 43 44 44 43 42 42 41 38 35 34 33 32 32 31 29 27 28 29 29 30 29 28 28 28 27 26 26 24 22
17 18 18 20 21 22 24 25 27 27 26 26 25 25 25 26 27 27 29 29 30 30 30 30 30 31 32 33 33 33 33 33 33 34 35 34 33 35 36 36 38 40 41 40 41 42 42 41 41 42 43 43 42 43 42 41 41 42 42 41 41 40 39 37 36 35 34 32 32 32 32 30 29 27 27 27 28 29 28 25 24 25 24 23 23 22 21
18 18 20 22 24 24 25 25 25 24 23 23 25 26 27 27 27 28 29 29 29 30 30 30 30 31 32 32 33 34 34 34 34 34 35 34 34 34 35 35 35 37 38 39 40 42 42 42 42 43 43 43 43 44 43 42 42 42 42 42 42 41 40 38 36 35 33 32 32 32 32 31 29 27 26 27 27 27 25 23 22 22 22 21 20 19 19
21 22 24 26 25 24 23 23 22 22 23 24 25 25 26 27 27 27 28 29 29 29 29 30 31 32 33 34 36 36 36 35 35 35 35 35 35 35 35 36 36 37 38 38 38 39 40 42 43 44 44 43 43 43 43 44 43 43 43 43 42 41 40 38 36 35 34 33 32 31 30 30 27 25 24 25 24 24 23 21 20 20 20 20 19 19 20
21 22 23 25 25 23 22 20 21 21 22 23 24 25 25 25 25 25 25 26 27 27 28 30 31 33 34 35 37 37 36 35 34 34 34 34 34 34 35 35 35 36 37 37 38 38 39 39 39 40 41 40 40 41 42 42 43 43 42 41 40 39 37 36 35 34 34 33 31 29 28 27 24 23 24 23 23 23 21 19 19 19 19 19 20 20 21
19 19 20 21 22 23 22 22 22 22 22 23 25 26 26 25 23 22 23 23 24 24 24 25 27 30 32 33 35 35 34 33 33 33 32 32 32 33 33 33 33 33 34 34 33 33 33 34 35 36 36 36 37 38 38 39 40 40 39 38 37 36 34 33 34 34 33 32 31 30 28 24 22 23 23 23 21 20 17 17 19 19 19 20 21 21 21
18 18 18 18 20 21 22 22 21 21 22 24 25 25 24 23 23 22 21 22 23 23 22 23 25 27 29 30 32 33 33 32 32 31 30 30 29 30 30 30 30 28 27 26 26 26 27 28 29 30 32 33 33 33 34 35 36 36 35 34 33 32 31 31 31 30 29 29 29 28 25 21 21 23 23 22 20 18 16 17 19 20 21 21 21 20 18
17 16 17 19 19 20 20 20 19 20 22 24 23 22 20 20 20 19 19 20 21 22 23 25 26 27 28 27 26 26 26 27 28 28 27 27 27 27 26 25 24 22 21 20 19 19 19 18 17 21 26 28 27 25 26 28 30 31 30 30 29 28 28 27 26 24 24 25 25 24 23 22 21 21 20 19 19 19 19 19 20 21 21 20 18 15 12
16 14 15 18 19 18 17 17 19 21 21 20 19 17 16 16 16 16 17 18 20 22 24 26 27 29 30 26 20 17 18 20 20 21 21 21 21 20 18 16 14 12 10 8 6 6 8 8 10 14 18 17 13 12 14 17 20 22 22 22 22 22 22 24 25 25 24 23 22 22 22 21 19 17 17 19 21 21 20 20 20 20 18 15 12 9 6
16 14 14 15 17 17 16 17 18 17 15 14 14 14 14 15 16 17 18 19 20 22 23 24 26 29 30 24 17 12 9 7 7 7 7 7 8 7 5 4 4 6 6 5 3 0 3 5 7 8 6 4 4 3 4 7 12 16 19 19 20 20 22 24 26 26 25 22 19 18 19 18 17 17 19 21 21 20 19 19 17 15 12 10 7 6 6
15 15 14 14 14 13 12 12 13 12 12 13 14 15 15 16 17 17 17 18 18 19 20 21 23 27 27 23 18 14 12 12 13 13 13 14 15 14 15 16 15 13 11 8 6 5 6 6 5 3 4 7 8 7 4 3 8 13 17 18 19 20 22 24 25 25 24 22 20 19 20 19 19 20 21 21 20 19 18 15 12 10 8 6 5 6 8
15 15 14 12 11 9 8 8 9 11 13 14 14 14 14 15 15 15 15 15 15 16 17 17 18 22 24 23 20 17 14 13 13 12 11 11 12 14 16 17 16 15 15 15 15 15 17 19 19 16 13 11 12 12 11 10 10 12 14 14 14 16 20 23 24 24 26 26 25 24 23 22 22 21 20 19 18 16 12 10 8 8 7 5 4 5 5
15 14 11 9 8 9 9 10 10 11 12 12 12 12 12 13 13 13 12 11 12 14 15 14 15 18 21 20 18 17 14 11 10 10 11 13 15 17 18 19 20 20 20 20 20 21 22 24 25 24 20 17 16 18 19 19 19 20 20 21 22 24 26 27 28 29 30 30 27 25 23 22 21 19 16 15 14 12 11 9 8 6 6 5 5 5 4
13 9 6 6 8 9 9 9 9 9 10 10 11 12 11 11 12 11 9 9 10 13 15 14 13 15 19 19 18 17 13 10 9 12 16 18 18 18 19 20 21 21 20 19 20 21 22 24 25 25 24 23 24 26 27 27 28 30 30 31 31 32 32 33 33 32 31 28 26 25 24 23 20 17 16 14 13 12 11 10 7 5 6 6 6 5 4
7 5 4 5 7 7 6 6 6 8 9 10 11 12 12 11 11 10 10 11 12 13 15 16 15 16 17 18 18 16 13 9 9 12 14 14 14 15 17 18 18 17 17 17 18 19 20 21 22 24 24 24 26 28 29 31 32 34 35 35 35 35 35 34 32 30 28 26 24 24 24 22 19 17 16 14 11 9 9 8 7 6 7 8 7 5 5
5 5 5 4 4 4 5 5 6 8 9 10 11 12 13 13 13 14 15 16 17 18 18 19 20 20 19 16 16 16 16 14 12 12 14 15 15 16 18 17 15 13 13 14 14 15 16 18 20 21 21 21 21 22 22 23 25 28 29 30 30 30 30 29 28 27 26 26 25 24 23 20 17 16 14 12 9 8 7 8 7 7 7 7 6 6 5
6 6 4 3 4 4 4 5 6 7 8 8 9 12 13 14 16 17 18 20 22 23 24 24 25 26 26 23 22 21 21 18 15 14 15 17 17 17 17 16 15 14 15 16 15 15 15 16 17 17 18 18 18 18 18 18 19 19 20 21 21 22 23 23 23 23 24 24 23 21 18 16 14 13 11 9 8 7 7 7 7 6 6 6 6 5 5
6 5 3 4 5 5 4 4 5 6 6 6 8 10 11 13 15 17 18 20 22 24 26 27 28 30 31 31 30 29 28 26 22 18 15 14 15 14 14 14 15 16 17 17 16 16 16 16 15 14 15 15 16 16 17 17 16 16 17 17 17 18 20 22 23 23 22 20 19 17 14 12 11 9 7 7 6 7 6 6 6 6 5 5 5 4 3
5 4 4 5 6 5 4 4 4 5 5 6 7 8 9 11 13 15 16 19 20 22 24 25 27 28 30 31 31 31 31 31 30 27 22 18 16 13 10 11 12 13 14 14 15 15 16 15 15 15 15 14 13 13 14 14 13 13 14 15 15 16 18 19 19 19 18 17 15 13 11 9 8 7 6 6 6 6 6 5 5 5 4 4 3 3 2
5 4 4 5 6 5 4 3 3 4 4 5 6 7 7 9 11 13 15 17 18 19 21 23 24 26 27 28 28 28 28 28 29 29 28 27 24 20 16 14 12 11 10 10 10 10 10 11 12 12 13 12 12 12 12 12 12 12 11 11 11 11 12 13 13 13 13 12 11 10 8 8 7 6 6 5 5 5 5 4 4 3 3 2 1 1 1
5 4 4 5 6 5 3 2 2 4 4 4 5 6 7 8 10 11 13 15 17 18 19 20 21 22 23 24 25 26 26 26 26 27 27 27 26 24 23 21 19 16 13 11 8 7 6 7 7 8 9 10 11 11 10 10 10 10 10 9 8 7 7 7 8 8 9 8 8 8 8 7 6 5 5 5 5 4 3 3 2 2 1 1 0 1 2
6 4 4 5 5 4 3 1 2 3 4 4 5 6 7 8 10 11 12 14 15 16 17 18 19 20 20 21 23 24 25 26 26 26 25 25 23 22 21 20 19 18 16 14 11 9 8 7 7 7 7 6 6 6 7 8 8 8 8 8 7 6 6 5 6 6 7 7 7 7 7 6 6 5 5 5 4 3 2 1 1 0 1 2 2 3 3
8 6 5 5 5 3 2 0 1 2 3 4 6 7 7 8 10 11 12 13 13 14 15 16 17 18 18 19 21 23 24 25 26 25 25 24 23 22 21 19 17 15 14 12 11 10 8 8 8 8 7 6 5 4 3 4 4 5 5 5 5 5 5 5 5 5 6 6 6 7 6 6 6 6 5 4 3 2 1 1 2 3 3 4 5 5 5
9 8 7 6 6 5 3 2 3 3 4 5 7 8 8 8 8 9 10 11 12 13 13 14 15 16 16 17 18 20 22 23 24 24 24 24 23 23 21 20 17 15 13 11 10 9 8 8 8 8 7 7 6 5 4 2 2 2 2 2 2 2 3 4 4 5 5 6 6 7 6 6 6 6 6 5 4 3 3 3 3 4 5 6 6 7 7
10 10 8 8 9 9 6 5 5 5 5 6 6 7 7 7 7 8 8 9 10 10 11 12 13 14 14 15 15 17 18 20 21 22 22 23 23 23 22 21 19 17 15 13 11 9 8 7 6 6 5 5 4 4 3 3 1 1 1 1 2 2 3 4 4 5 6 7 7 8 8 8 8 7 7 7 6 6 5 5 6 6 7 7 8 8 9
11 10 10 10 11 10 9 8 8 7 7 6 6 6 6 7 7 6 6 7 7 8 9 10 11 11 12 12 13 13 15 17 18 19 21 22 22 23 22 21 20 19 17 15 14 12 10 8 6 5 4 3 2 1 1 0 1 1 1 2 3 3 3 3 4 4 5 6 7 8 8 8 8 9 9 9 9 8 8 9 9 9 9 9 10 10 11
11 10 11 12 13 12 11 10 10 8 8 7 7 6 6 6 6 5 5 5 5 6 7 8 9 9 10 10 11 11 12 13 15 16 18 19 20 21 22 22 21 20 19 18 16 14 12 10 8 7 5 4 3 3 3 4 4 4 4 5 5 5 6 6 6 6 6 7 8 8 8 9 9 10 10 11 11 11 11 12 12 12 12 12 12 12 12
12 11 12 15 15 14 12 13 12 10 9 8 8 7 6 5 4 4 4 3 3 4 5 5 6 7 8 8 9 9 10 11 12 13 15 17 18 19 21 21 21 21 20 19 17 15 14 13 11 10 8 7 6 5 5 5 6 7 8 8 8 9 9 9 9 9 9 10 10 10 10 11 11 12 12 13 13 14 14 14 14 14 14 14 14 14 14
12 11 12 15 16 14 14 15 15 12 9 9 10 9 8 6 5 4 3 2 2 2 3 3 4 4 5 6 7 8 8 9 10 11 12 14 15 17 18 19 20 21 21 20 18 16 14 13 12 12 11 10 9 8 7 6 6 7 8 10 11 11 12 12 12 13 13 13 13 13 13 14 14 15 15 16 16 16 16 16 17 17 16 16 16 15 15
13 12 12 13 14 13 14 16 17 14 9 8 10 11 10 8 7 6 5 4 3 1 1 1 1 2 3 4 5 6 7 7 8 9 10 11 13 14 15 17 19 20 20 20 20 18 16 14 13 12 11 11 11 10 10 9 9 8 8 9 10 11 12 13 14 14 15 15 16 16 16 17 17 17 18 18 19 19 18 18 18 18 18 17 17 16 16
Wind_Direction
263 267 271 275 278 277 275 275 275 275 274 272 272 271 269 271 270 269 277 284 285 289 293 298 305 300 283 271 257 246 238 239 241 228 217 213 209 211 224 238 247 257 260 260 263 264 262 259 259 257 252 249 249 249 249 250 250 248 247 248 248 247 247 245 245 246 247 249 251 253 254 255 257 260 264 268 271 268 266 271 277 281 282 284 284 280 278
266 266 268 272 272 274 278 276 273 273 272 271 273 271 269 268 267 269 276 281 279 282 288 291 292 289 283 273 262 258 244 235 240 238 226 220 224 231 236 234 236 247 256 260 261 261 262 263 262 261 258 256 257 258 260 262 264 264 262 261 260 258 256 253 251 250 249 250 254 257 260 263 264 266 267 269 270 269 268 271 275 276 278 280 281 281 279
271 270 271 273 272 273 277 278 277 278 278 278 280 279 275 272 270 271 275 278 279 282 288 291 289 285 279 269 262 262 257 250 250 249 243 240 238 238 242 246 244 241 250 263 263 260 262 265 266 268 268 266 263 263 266 269 270 271 269 267 265 264 264 261 259 258 256 256 259 262 262 263 266 268 267 266 269 272 274 275 276 277 279 281 281 281 278
272 273 275 274 274 272 270 272 276 279 278 275 270 269 272 274 276 278 278 279 284 288 289 290 289 280 273 274 266 257 255 256 253 249 248 246 240 235 240 248 246 240 243 257 263 263 264 266 267 269 274 276 273 271 270 271 271 271 268 263 262 263 262 260 259 259 260 262 266 266 264 264 266 267 266 266 269 273 277 278 279 278 278 279 280 281 279
274 275 276 280 282 277 268 267 273 275 274 273 271 269 271 273 278 282 279 276 285 296 293 293 298 282 265 265 261 255 254 250 242 241 244 244 243 242 244 246 239 234 233 235 247 260 264 267 269 272 279 283 281 281 279 271 267 266 263 260 259 259 259 258 258 259 259 261 264 265 265 266 267 268 269 272 273 275 278 280 280 280 277 274 273 274 275
275 276 282 285 279 268 266 269 273 272 270 273 280 284 283 284 290 293 287 284 294 306 306 300 300 292 277 267 257 259 272 258 241 244 245 241 243 242 239 240 233 227 226 225 228 245 255 262 272 279 283 282 282 285 284 274 268 266 263 263 262 261 260 260 260 259 259 258 259 262 264 265 265 266 270 275 278 280 282 283 283 282 280 277 273 270 270
271 276 279 277 266 262 271 276 275 273 271 269 272 278 284 291 299 297 290 290 299 311 315 303 297 297 295 285 267 262 286 271 246 248 246 236 236 236 234 236 229 219 219 222 226 238 250 263 273 277 278 278 280 285 282 277 275 271 265 265 267 267 265 262 261 260 259 260 263 266 269 270 271 272 273 276 279 281 282 282 281 279 277 276 274 270 268
269 272 265 257 266 275 278 283 280 271 266 264 263 269 270 268 282 290 288 290 300 312 314 306 299 289 286 291 286 277 285 267 244 237 238 237 238 238 240 240 224 213 216 220 226 238 250 263 267 263 266 272 277 281 279 277 276 269 261 261 263 265 264 262 262 263 264 268 273 276 277 278 278 278 278 278 279 279 280 280 279 278 276 274 273 269 267
261 266 262 263 275 278 275 286 289 269 252 237 233 249 253 252 274 287 288 296 307 306 290 277 281 271 265 284 307 275 271 274 264 253 245 246 249 242 239 241 230 221 221 222 231 248 260 264 259 253 260 268 273 276 274 270 267 262 260 260 258 259 261 261 263 267 271 277 280 281 281 281 279 279 279 279 279 279 279 278 278 277 276 274 272 269 267
255 263 268 268 274 279 277 299 298 274 255 232 231 261 274 279 287 280 273 288 306 299 277 253 256 267 270 294 302 252 239 262 281 272 251 245 255 242 231 237 235 229 227 227 235 250 259 262 258 254 255 260 263 266 264 259 256 255 256 256 254 256 261 263 265 271 276 281 284 285 284 280 279 279 279 280 280 279 278 278 278 277 276 274 271 271 273
255 258 263 263 264 273 31 31 344 318 292 267 262 286 288 279 291 291 288 293 297 302 291 263 262 281 299 298 285 252 227 214 219 248 236 219 248 248 240 252 254 252 262 260 249 242 238 249 260 257 252 251 254 257 258 254 252 252 252 252 253 257 261 264 267 272 277 282 286 286 284 281 279 278 278 278 279 278 278 279 280 281 281 276 273 274 279
252 254 259 264 260 235 210 244 279 337 329 310 298 302 284 247 247 306 312 293 293 303 296 276 275 294 306 291 274 255 239 225 223 252 266 238 239 241 240 253 258 252 258 264 262 252 249 260 267 261 255 250 248 250 253 253 253 253 254 255 257 259 261 263 267 272 277 283 286 286 284 282 280 278 279 280 279 279 280 282 284 285 283 279 278 279 282
251 253 257 262 252 223 253 281 277 283 307 309 293 287 293 279 268 284 306 298 297 303 296 286 282 272 264 271 265 254 250 242 239 252 260 246 241 237 231 238 248 246 247 252 257 260 259 258 254 252 254 254 251 251 252 253 255 256 257 258 259 260 262 264 266 270 275 279 282 284 285 284 282 282 283 283 282 281 281 281 281 280 280 280 282 283 284
252 253 257 263 257 247 290 314 318 311 306 312 308 293 293 292 287 292 305 303 299 300 298 293 287 273 262 260 258 256 259 258 252 252 255 256 256 249 239 241 248 250 248 249 255 264 266 263 263 263 261 257 255 254 253 254 256 256 258 261 262 264 266 267 268 270 274 276 279 281 281 281 282 284 286 286 284 281 278 277 276 277 278 281 284 284 283
253 250 250 258 262 276 328 334 336 337 320 313 315 306 297 296 293 289 292 299 302 300 295 290 286 281 273 268 264 261 262 262 259 255 254 258 265 264 260 259 259 261 260 257 257 263 264 260 258 262 264 262 260 258 256 257 258 259 260 263 265 266 267 269 272 274 277 278 280 280 279 279 281 284 285 285 282 277 274 274 276 279 282 284 284 283 281
262 253 249 266 292 310 334 332 322 324 319 307 307 307 303 301 299 295 295 298 298 295 293 290 287 284 280 277 274 271 268 266 265 261 257 258 262 268 271 269 266 265 265 263 261 261 261 258 254 255 259 261 261 259 257 257 260 261 262 262 264 267 269 271 273 275 277 278 278 278 278 278 280 283 285 284 281 276 274 274 277 280 283 284 284 282 280
277 270 277 304 312 308 314 314 306 309 313 309 307 308 307 304 301 299 297 294 286 280 280 283 285 285 285 284 282 279 277 275 273 271 268 266 266 267 269 270 268 266 265 266 265 263 260 259 258 258 255 251 252 255 257 257 259 260 261 263 266 269 272 272 273 275 277 277 277 277 278 278 280 283 285 284 282 280 278 277 277 279 281 283 283 280 277
283 283 286 298 303 299 301 306 307 307 310 313 309 299 292 290 286 283 285 287 285 281 279 281 283 284 285 286 285 284 283 280 279 278 276 274 274 274 274 273 272 272 271 271 272 271 268 263 260 259 255 251 253 258 260 259 259 259 259 262 265 268 271 272 274 274 274 275 276 278 278 278 281 282 282 281 281 281 279 278 278 279 282 283 281 277 274
284 286 289 294 297 299 302 305 307 307 303 296 285 275 271 270 269 271 275 281 285 287 285 285 286 286 287 287 285 284 281 279 279 278 275 274 275 275 276 275 274 273 272 270 269 269 270 270 267 264 260 254 252 255 256 256 258 261 262 265 268 272 274 274 274 273 273 274 276 276 275 275 276 274 275 277 278 277 276 276 277 278 279 278 274 271 270
277 280 289 296 295 296 300 303 301 294 283 274 271 271 272 274 275 278 281 283 286 288 288 287 288 289 290 288 285 284 282 280 280 278 276 274 273 272 272 273 272 270 267 264 263 262 260 260 262 263 260 255 253 255 256 256 257 261 265 267 268 269 270 271 272 274 275 275 274 273 274 274 271 267 268 272 272 271 272 274 274 273 272 270 267 267 267
281 287 298 302 297 292 289 284 278 276 277 279 281 281 283 285 286 287 287 288 289 290 292 292 291 291 291 289 286 286 285 284 283 281 277 274 271 268 266 265 265 265 262 259 258 258 255 253 254 254 255 257 259 260 260 258 256 255 255 256 256 257 260 264 270 275 277 275 270 269 272 274 271 266 266 267 267 268 269 270 270 268 266 266 267 268 267
290 288 289 289 287 286 285 284 283 285 288 290 291 292 293 294 292 290 289 289 289 290 291 292 291 289 290 288 286 285 285 285 284 284 282 278 273 268 263 258 257 258 257 255 255 257 258 258 257 257 258 261 263 263 262 262 262 261 259 258 258 258 261 266 271 274 275 274 271 267 266 267 267 265 264 264 265 267 267 266 266 267 267 267 267 265 263
286 283 281 282 284 287 289 291 293 295 295 295 296 297 297 295 293 292 291 290 290 291 291 291 289 288 287 287 286 285 285 283 283 283 282 280 276 271 267 262 258 258 259 259 260 262 264 264 263 263 263 263 262 262 261 260 260 262 263 264 263 263 264 267 269 269 269 269 268 265 263 263 262 260 260 261 263 266 266 263 262 265 266 262 257 253 252
288 288 289 289 290 291 293 297 299 300 299 299 298 297 296 297 298 296 294 293 293 293 292 292 291 288 286 285 286 285 284 283 283 282 281 280 277 274 271 269 267 267 267 267 265 264 266 267 266 265 264 262 261 261 260 259 259 260 262 264 264 263 264 264 264 264 262 261 260 260 260 259 258 257 256 257 261 265 266 262 259 259 256 251 247 246 247
293 293 294 294 293 293 295 298 301 304 304 302 298 297 298 299 299 297 296 295 293 292 290 290 289 287 285 285 285 285 284 283 282 281 281 281 279 276 274 273 271 270 270 269 267 266 267 268 266 265 264 262 262 261 260 259 260 260 261 262 262 262 262 262 260 260 258 256 254 253 253 255 256 255 255 257 260 262 261 259 255 248 242 242 245 248 250
300 298 297 297 296 296 297 298 299 301 301 299 298 298 298 297 297 299 299 296 292 290 289 289 288 288 287 287 287 286 285 284 282 281 280 279 276 274 274 273 273 272 271 270 268 266 266 266 265 265 264 264 263 262 262 261 261 260 259 259 259 259 259 258 257 255 253 252 250 248 249 251 251 249 249 250 251 253 255 254 247 238 236 240 245 246 244
303 300 302 303 303 304 305 306 304 303 302 301 300 299 299 299 301 303 304 301 296 291 289 290 291 291 290 289 288 287 286 285 284 282 280 278 275 274 273 272 272 271 270 269 267 267 267 268 268 267 267 265 263 261 259 258 257 256 254 253 253 253 252 251 250 248 247 247 246 246 248 248 244 242 243 243 243 247 251 247 237 234 234 235 235 234 232
303 301 303 306 309 310 309 309 309 308 306 304 303 302 302 303 304 305 307 310 309 304 301 301 302 301 299 296 294 292 291 290 288 285 283 280 277 274 272 270 269 269 269 269 270 270 271 271 270 269 267 264 261 259 257 254 253 252 249 247 247 246 245 244 244 243 242 241 241 242 244 241 234 232 235 239 242 243 239 229 224 225 224 221 220 221 222
303 302 301 302 305 307 309 310 310 305 303 304 305 305 304 303 303 304 306 310 314 316 316 316 314 311 308 304 299 295 293 291 289 288 286 283 279 276 273 271 269 269 271 273 275 276 277 277 277 276 274 271 267 264 260 256 253 250 248 245 243 241 240 240 239 238 236 234 232 230 229 228 223 222 228 238 239 227 212 208 211 211 209 209 211 213 214
304 304 303 303 303 305 309 309 304 299 301 305 310 312 310 308 310 312 312 313 316 317 319 321 321 320 318 314 307 299 293 291 289 288 286 284 282 280 277 275 274 274 276 279 280 281 281 281 281 282 283 284 282 274 262 254 249 245 242 240 238 236 233 231 228 223 221 220 217 213 211 213 217 221 227 231 221 203 195 199 201 200 200 201 201 199 198
314 311 306 303 302 303 304 303 300 301 305 311 316 319 320 321 324 325 324 322 322 324 326 327 328 329 330 331 326 313 299 293 291 290 287 285 285 286 285 283 279 276 276 276 275 275 276 273 272 277 285 294 297 279 257 244 236 230 225 222 222 222 220 216 211 206 204 202 201 202 203 207 212 214 212 207 198 189 188 192 192 190 190 189 185 184 190
319 316 308 303 303 302 298 297 300 306 314 322 325 324 325 328 329 328 328 329 329 330 334 334 332 333 337 344 351 348 339 337 338 337 341 350 356 2 17 47 88 116 129 133 125 352 287 271 264 267 283 344 14 339 251 224 212 206 202 199 199 201 201 200 198 195 190 187 189 193 198 202 203 196 190 188 186 184 183 183 182 181 180 177 175 189 204
321 320 313 308 308 306 300 298 303 313 323 329 327 323 325 329 328 327 330 333 332 334 340 341 338 339 345 355 8 22 41 57 58 53 51 48 50 65 84 94 102 111 119 120 104 80 72 72 70 77 83 68 56 54 71 148 181 188 192 195 199 198 193 189 188 184 179 180 186 190 190 191 186 179 177 177 179 180 178 172 170 174 174 170 175 185 190
320 318 314 315 320 322 319 317 318 323 329 333 332 329 328 329 329 332 336 337 336 341 347 349 349 353 357 1 11 25 42 53 55 55 54 54 63 82 94 98 103 105 103 97 92 86 80 74 71 74 84 85 77 76 85 102 126 147 161 168 167 164 164 167 170 169 169 173 178 179 176 173 169 168 169 171 172 170 161 155 163 171 161 156 176 183 182
315 309 307 318 334 341 342 341 338 338 341 345 345 341 336 336 341 346 348 346 348 357 2 1 3 10 13 13 17 24 31 36 45 59 72 80 88 98 104 105 106 104 99 94 89 82 75 72 72 75 85 94 93 89 90 96 105 114 121 125 125 128 135 145 152 156 159 162 163 160 157 155 154 154 153 152 150 144 137 146 168 171 154 166 194 194 189
311 305 309 331 342 345 350 355 358 358 358 360 359 356 355 359 3 5 8 9 11 16 18 17 19 25 29 31 32 29 26 36 73 99 105 100 98 104 112 112 108 101 95 91 87 80 77 76 75 76 82 91 97 99 101 102 105 108 112 117 121 125 129 136 141 145 147 145 144 142 142 140 138 136 137 141 145 146 148 163 185 181 164 179 195 189 185
308 298 319 342 346 348 354 3 8 8 7 9 11 11 13 18 23 29 36 38 37 34 32 33 37 41 41 43 44 42 40 52 89 115 120 112 107 115 119 113 106 101 97 92 86 82 82 82 81 81 83 87 92 97 102 107 111 114 116 119 123 126 130 133 135 137 138 138 138 139 138 137 138 143 148 153 157 158 163 182 200 187 170 177 186 183 184
314 309 324 342 345 344 352 1 9 12 12 13 17 21 26 32 40 47 52 54 53 51 47 47 49 52 52 54 58 61 62 65 77 97 108 111 116 123 121 111 103 100 97 91 86 85 86 87 86 85 86 88 89 91 94 99 106 113 118 122 125 128 131 133 135 138 141 143 144 142 139 139 144 151 155 158 164 169 176 187 192 180 170 171 173 174 182
328 329 341 351 337 334 349 360 5 12 15 17 24 30 36 43 50 55 58 61 63 63 63 62 61 61 61 62 63 65 65 65 68 79 97 108 116 119 117 111 104 96 91 86 82 79 81 85 88 87 87 88 90 91 93 94 96 100 107 114 120 125 128 130 131 134 137 138 140 140 139 139 143 147 152 161 172 177 179 181 178 171 166 162 162 171 184
325 331 338 337 331 332 346 356 5 16 22 26 36 42 45 51 57 60 63 66 69 70 71 69 68 67 67 66 65 65 65 64 64 68 80 98 106 107 107 105 99 92 89 87 83 78 78 83 88 91 91 88 87 90 95 97 94 91 94 100 108 115 121 124 125 127 130 133 136 140 142 143 144 149 158 170 174 174 174 173 166 158 155 155 162 176 184
297 309 321 327 327 331 341 353 11 30 32 35 48 57 57 60 63 65 68 71 72 73 74 73 71 69 68 67 66 66 65 65 65 65 67 73 79 84 93 100 98 91 87 84 81 78 79 83 87 92 95 96 95 95 98 100 98 96 96 100 105 112 118 123 127 130 134 137 141 144 147 150 156 165 173 176 174 171 169 161 151 146 150 156 169 185 191
273 293 306 304 303 312 328 350 23 46 47 52 62 69 70 71 71 72 74 76 76 75 75 75 73 71 69 68 68 68 67 67 68 67 66 65 65 65 69 77 81 81 78 74 71 69 72 77 81 83 89 96 103 104 105 108 110 109 108 110 112 116 121 127 132 136 139 143 148 154 159 167 174 179 180 177 171 165 158 147 141 144 150 153 162 203 290
251 273 291 288 290 303 319 344 52 63 62 66 75 81 84 85 83 81 81 80 79 77 75 73 72 72 72 71 70 69 68 67 67 67 66 65 64 63 64 66 67 66 65 61 56 53 53 53 54 58 69 86 101 109 114 119 122 126 129 131 131 131 135 141 147 152 157 162 168 174 179 182 182 181 179 175 169 160 154 150 148 149 153 163 276 303 315
232 237 264 271 279 300 319 358 79 77 78 88 94 96 98 96 93 89 85 81 78 75 73 70 69 69 70 70 70 69 68 66 65 63 63 62 61 60 61 63 65 66 67 65 62 59 52 40 36 41 50 61 79 101 117 127 133 139 146 153 159 162 166 171 178 184 189 191 190 190 189 187 184 181 179 177 172 165 163 171 187 264 313 311 310 311 314
228 219 226 243 257 278 307 45 107 102 108 116 116 113 108 102 95 89 84 79 74 71 67 65 63 63 64 65 66 66 64 63 62 60 59 59 58 56 56 57 58 60 63 65 65 64 59 52 49 52 55 57 61 74 100 124 136 142 148 159 168 172 176 183 191 199 207 212 210 206 202 194 190 190 190 188 191 199 213 262 301 313 315 314 314 315 317
230 221 219 226 236 244 237 191 167 157 146 139 133 126 117 108 97 86 79 74 71 68 64 61 58 57 57 59 62 63 62 61 60 57 56 55 54 52 51 50 50 51 51 51 51 52 53 53 52 52 55 60 65 69 72 83 115 142 155 173 188 199 210 216 215 214 218 219 218 218 216 210 205 206 208 211 220 235 252 275 292 301 307 311 314 318 319
230 223 218 217 225 232 225 197 178 176 171 159 148 138 130 119 107 93 81 72 67 63 62 59 56 54 53 54 57 60 61 61 59 57 55 54 52 50 48 45 42 40 39 39 38 36 34 36 39 41 44 48 55 60 66 71 89 149 176 189 200 209 222 232 234 230 225 222 222 224 222 219 217 219 224 229 238 247 256 266 275 284 294 302 308 313 316
235 228 220 218 223 226 218 197 184 183 182 174 164 157 148 136 123 108 90 76 66 60 57 55 54 52 51 52 54 57 59 59 58 56 55 53 52 51 47 44 40 36 32 29 28 27 24 21 19 16 12 9 11 14 21 332 272 254 237 230 229 225 221 224 226 226 224 225 228 229 229 231 234 237 240 244 248 253 259 266 271 278 286 294 301 307 310
237 229 221 219 221 220 211 202 197 194 190 188 187 184 176 161 144 127 111 94 77 64 56 53 51 48 47 46 49 53 56 57 56 54 53 52 51 49 46 43 39 35 29 24 21 19 16 12 8 3 352 338 322 303 276 256 251 251 251 247 243 242 240 238 237 236 234 236 237 239 241 245 249 251 253 255 256 259 263 268 273 278 284 290 296 301 303
238 232 223 220 220 216 209 206 205 203 203 206 206 204 202 198 181 156 136 120 100 81 65 53 48 45 42 40 41 46 51 53 52 50 48 46 45 44 42 40 36 33 29 24 19 15 11 6 2 358 352 343 332 316 295 272 257 251 249 248 247 247 247 246 245 245 245 245 247 249 251 253 255 257 258 260 261 264 268 273 278 281 285 288 292 294 295
236 234 226 223 222 217 209 208 209 209 212 219 221 220 222 227 221 202 186 176 143 106 81 59 47 43 38 32 31 35 40 44 45 44 42 41 39 37 36 34 32 29 26 23 19 15 11 5 360 354 350 344 338 330 320 306 288 270 260 255 253 252 251 251 250 250 250 250 250 251 251 253 254 257 259 261 264 267 271 274 278 281 283 285 286 287 286
231 226 223 224 225 219 213 214 216 215 212 217 222 224 228 235 237 232 225 223 220 199 152 86 34 30 26 23 23 26 28 32 34 34 33 32 32 31 30 29 27 24 22 19 17 14 11 7 2 355 349 343 337 332 326 319 310 300 288 277 268 264 261 259 258 258 258 258 257 257 257 257 257 258 260 262 264 266 269 271 273 275 276 277 277 277 277
Height
3066 3066 3066 3066 3067 3066 3066 3066 3065 3065 3065 3066 3066 3066 3067 3068 3067 3065 3065 3068 3067 3067 3069 3070 3070 3070 3070 3071 3072 3071 3071 3071 3071 3071 3072 3074 3074 3073 3073 3072 3071 3070 3070 3071 3072 3072 3073 3074 3075 3077 3079 3079 3080 3081 3082 3083 3083 3084 3085 3086 3087 3087 3088 3089 3089 3090 3089 3090 3090 3091 3092 3094 3095 3095 3096 3096 3096 3097 3097 3097 3098 3099 3099 3100 3101 3102 3103
3063 3064 3064 3064 3064 3064 3063 3063 3062 3062 3063 3063 3063 3063 3064 3065 3065 3064 3065 3066 3065 3066 3068 3068 3069 3069 3068 3070 3070 3070 3070 3071 3071 3071 3071 3073 3074 3073 3073 3071 3069 3068 3068 3069 3070 3070 3070 3071 3073 3074 3076 3077 3078 3079 3080 3081 3082 3082 3083 3084 3084 3085 3086 3086 3087 3087 3086 3087 3087 3088 3088 3089 3090 3091 3092 3092 3092 3093 3094 3094 3095 3096 3096 3096 3096 3098 3100
3061 3062 3062 3062 3062 3061 3060 3059 3060 3060 3060 3060 3060 3061 3062 3063 3063 3063 3064 3063 3062 3064 3066 3066 3066 3066 3066 3068 3068 3068 3069 3070 3070 3070 3070 3070 3072 3073 3073 3071 3068 3066 3066 3065 3066 3067 3068 3069 3070 3071 3073 3074 3076 3077 3078 3079 3079 3079 3080 3081 3081 3082 3083 3084 3084 3084 3084 3085 3086 3086 3086 3086 3087 3088 3089 3090 3090 3090 3091 3091 3092 3093 3093 3092 3093 3094 3095
3060 3061 3061 3060 3060 3059 3057 3057 3058 3059 3059 3059 3059 3060 3061 3061 3061 3061 3061 3061 3061 3062 3063 3063 3062 3062 3062 3063 3063 3064 3066 3067 3067 3067 3067 3068 3069 3070 3072 3071 3067 3064 3064 3063 3063 3064 3066 3066 3066 3067 3069 3070 3071 3073 3076 3076 3076 3077 3078 3078 3079 3079 3080 3080 3081 3081 3082 3083 3083 3083 3084 3084 3084 3085 3086 3087 3088 3088 3088 3088 3089 3090 3090 3090 3090 3090 3091
3058 3059 3060 3059 3059 3056 3054 3055 3057 3057 3058 3057 3057 3057 3058 3059 3060 3059 3059 3059 3060 3059 3059 3059 3059 3058 3058 3058 3058 3060 3061 3061 3062 3063 3064 3066 3067 3067 3069 3069 3066 3063 3063 3061 3060 3061 3063 3063 3063 3065 3067 3067 3066 3069 3072 3073 3073 3074 3075 3075 3076 3076 3076 3077 3077 3078 3079 3079 3080 3080 3081 3081 3082 3082 3083 3084 3084 3085 3085 3085 3086 3086 3087 3088 3088 3088 3088
3057 3058 3059 3059 3057 3053 3052 3055 3056 3056 3055 3055 3054 3054 3055 3056 3057 3057 3057 3057 3056 3056 3057 3058 3057 3056 3056 3056 3056 3058 3058 3058 3058 3060 3061 3062 3063 3064 3065 3065 3063 3061 3059 3058 3057 3059 3060 3060 3061 3063 3064 3063 3063 3065 3067 3068 3069 3070 3071 3071 3072 3073 3073 3073 3073 3074 3074 3075 3076 3076 3077 3077 3078 3079 3079 3080 3081 3081 3082 3082 3083 3083 3083 3084 3085 3085 3084
3056 3057 3058 3057 3053 3050 3051 3054 3054 3053 3053 3052 3052 3053 3053 3055 3055 3054 3054 3054 3054 3055 3056 3056 3055 3055 3055 3053 3054 3056 3057 3056 3056 3057 3057 3058 3059 3059 3060 3060 3059 3057 3054 3054 3054 3056 3056 3057 3059 3061 3060 3060 3061 3063 3063 3064 3065 3067 3068 3067 3068 3068 3069 3070 3070 3070 3070 3071 3072 3073 3073 3074 3075 3075 3076 3077 3077 3077 3078 3079 3079 3079 3079 3079 3081 3081 3080
3055 3055 3056 3053 3049 3049 3052 3052 3050 3049 3050 3050 3050 3051 3052 3053 3053 3052 3051 3052 3053 3054 3054 3054 3054 3054 3052 3051 3052 3055 3056 3054 3054 3054 3054 3054 3055 3056 3057 3056 3054 3052 3051 3051 3051 3052 3054 3055 3057 3057 3056 3056 3058 3061 3061 3061 3062 3064 3064 3064 3065 3065 3065 3067 3067 3067 3067 3068 3069 3070 3071 3071 3072 3072 3073 3073 3074 3073 3074 3074 3074 3074 3074 3074 3076 3076 3076
3054 3053 3052 3050 3048 3049 3050 3049 3047 3047 3047 3047 3047 3048 3049 3051 3051 3050 3050 3051 3052 3052 3051 3051 3049 3048 3048 3049 3051 3054 3054 3052 3052 3052 3052 3053 3053 3053 3053 3052 3050 3049 3048 3048 3049 3049 3051 3053 3053 3053 3053 3053 3055 3057 3059 3059 3060 3060 3061 3062 3063 3062 3062 3064 3064 3064 3064 3065 3066 3067 3068 3068 3069 3069 3069 3070 3070 3070 3070 3070 3070 3070 3070 3070 3070 3070 3071
3053 3052 3050 3049 3048 3048 3048 3047 3046 3046 3046 3046 3046 3046 3048 3050 3049 3048 3049 3050 3050 3049 3048 3047 3046 3044 3046 3048 3050 3051 3051 3050 3049 3049 3050 3051 3051 3049 3049 3049 3048 3047 3046 3046 3047 3047 3048 3049 3049 3050 3050 3050 3051 3053 3055 3056 3057 3057 3058 3059 3059 3059 3059 3060 3061 3061 3061 3061 3062 3063 3064 3065 3065 3066 3066 3066 3067 3067 3066 3066 3066 3066 3066 3065 3065 3065 3066
3051 3051 3049 3048 3048 3047 3047 3047 3046 3045 3045 3045 3046 3046 3047 3047 3046 3046 3047 3047 3047 3046 3045 3045 3044 3044 3046 3047 3047 3047 3047 3046 3046 3046 3046 3048 3048 3047 3047 3047 3047 3046 3045 3044 3044 3044 3044 3046 3046 3047 3047 3047 3048 3049 3051 3052 3053 3053 3054 3055 3056 3056 3056 3056 3057 3057 3057 3058 3058 3059 3060 3060 3061 3062 3063 3063 3063 3063 3063 3062 3062 3062 3061 3061 3060 3062 3063
3049 3049 3048 3047 3047 3046 3045 3045 3045 3044 3043 3044 3045 3046 3045 3045 3044 3044 3045 3044 3043 3043 3043 3043 3043 3044 3046 3045 3043 3044 3044 3043 3044 3044 3043 3043 3044 3044 3045 3045 3044 3044 3043 3041 3040 3040 3042 3043 3044 3043 3043 3043 3044 3045 3047 3048 3049 3050 3051 3051 3052 3052 3053 3053 3053 3054 3053 3053 3054 3054 3054 3055 3057 3058 3059 3059 3059 3059 3059 3059 3058 3058 3057 3056 3056 3058 3059
3047 3047 3047 3046 3045 3044 3043 3042 3043 3043 3043 3044 3044 3044 3043 3042 3042 3043 3042 3042 3042 3042 3041 3041 3041 3042 3042 3041 3040 3040 3041 3040 3040 3040 3039 3039 3039 3040 3040 3040 3039 3038 3038 3038 3038 3038 3039 3040 3040 3040 3040 3040 3041 3041 3043 3044 3045 3046 3047 3048 3048 3048 3049 3049 3050 3050 3050 3050 3049 3049 3050 3051 3051 3052 3054 3055 3055 3056 3056 3055 3054 3054 3053 3052 3053 3054 3055
3045 3045 3045 3044 3044 3043 3042 3041 3041 3042 3043 3043 3043 3042 3041 3041 3041 3041 3040 3040 3040 3040 3039 3039 3039 3038 3037 3037 3037 3037 3037 3037 3037 3037 3036 3036 3036 3036 3036 3035 3035 3035 3035 3035 3035 3036 3037 3037 3037 3037 3037 3037 3037 3038 3038 3039 3040 3041 3042 3043 3043 3044 3044 3045 3045 3045 3046 3046 3046 3046 3046 3047 3047 3047 3048 3050 3051 3051 3051 3051 3050 3049 3049 3049 3049 3050 3050
3044 3044 3043 3043 3042 3042 3041 3041 3041 3042 3042 3042 3040 3039 3039 3039 3039 3038 3038 3038 3038 3037 3036 3036 3035 3034 3033 3032 3032 3033 3033 3033 3033 3033 3033 3032 3032 3032 3032 3032 3033 3033 3032 3032 3032 3033 3034 3034 3034 3034 3033 3033 3033 3034 3034 3035 3036 3037 3037 3038 3038 3038 3039 3039 3039 3040 3040 3040 3041 3041 3041 3042 3043 3042 3043 3045 3046 3046 3046 3046 3045 3045 3045 3045 3045 3045 3045
3042 3042 3042 3041 3041 3041 3041 3041 3041 3041 3041 3040 3038 3038 3037 3037 3036 3036 3035 3035 3035 3034 3033 3031 3030 3029 3029 3028 3027 3027 3028 3028 3028 3028 3028 3028 3028 3028 3028 3028 3029 3029 3028 3028 3028 3029 3029 3029 3030 3030 3030 3029 3029 3029 3030 3031 3031 3032 3032 3032 3032 3032 3033 3033 3034 3034 3035 3035 3035 3035 3036 3038 3038 3038 3038 3040 3041 3040 3041 3041 3040 3040 3041 3041 3040 3040 3040
3041 3041 3040 3040 3040 3041 3041 3040 3039 3039 3039 3038 3037 3036 3036 3035 3034 3034 3032 3031 3030 3029 3028 3026 3026 3025 3025 3024 3023 3023 3022 3022 3022 3022 3023 3023 3023 3023 3024 3024 3024 3024 3024 3024 3024 3024 3025 3025 3025 3025 3025 3024 3024 3024 3025 3026 3027 3027 3027 3027 3027 3027 3027 3027 3028 3029 3030 3030 3030 3031 3032 3033 3033 3033 3033 3034 3034 3034 3035 3035 3035 3035 3035 3036 3035 3035 3035
3040 3039 3039 3039 3039 3039 3039 3038 3038 3037 3036 3035 3034 3033 3032 3031 3030 3029 3028 3026 3025 3024 3024 3023 3022 3021 3020 3020 3019 3019 3018 3017 3017 3017 3017 3018 3018 3019 3019 3020 3020 3020 3020 3020 3020 3020 3020 3020 3020 3020 3019 3019 3019 3020 3021 3022 3022 3022 3022 3022 3022 3022 3022 3023 3023 3024 3025 3025 3026 3027 3027 3028 3028 3029 3028 3027 3028 3028 3029 3030 3030 3030 3030 3030 3030 3029 3030
3039 3038 3038 3038 3037 3037 3036 3036 3036 3035 3033 3032 3030 3028 3027 3026 3025 3025 3024 3023 3022 3021 3020 3019 3018 3016 3016 3015 3015 3014 3013 3012 3012 3012 3012 3012 3013 3014 3014 3015 3015 3016 3016 3015 3015 3015 3015 3015 3015 3014 3014 3014 3015 3015 3016 3017 3017 3017 3017 3017 3018 3018 3017 3017 3018 3019 3020 3021 3022 3022 3022 3023 3024 3023 3022 3022 3023 3023 3023 3024 3025 3025 3025 3025 3024 3024 3025
3037 3037 3036 3036 3035 3034 3034 3034 3033 3031 3029 3027 3027 3026 3025 3024 3023 3022 3021 3020 3018 3017 3015 3014 3013 3012 3011 3010 3009 3008 3008 3007 3006 3006 3006 3006 3006 3007 3008 3009 3010 3009 3009 3008 3008 3008 3008 3008 3008 3008 3007 3008 3009 3009 3010 3011 3012 3012 3012 3013 3013 3012 3012 3012 3013 3014 3015 3016 3016 3016 3016 3018 3019 3017 3016 3017 3018 3019 3019 3019 3020 3020 3021 3020 3019 3019 3021
3035 3035 3035 3033 3032 3031 3031 3031 3029 3027 3026 3025 3024 3024 3023 3021 3020 3019 3017 3016 3014 3012 3011 3010 3008 3007 3006 3005 3004 3003 3002 3001 3000 3000 3000 3000 3000 3000 3001 3002 3002 3001 3000 2999 2999 2999 2999 3000 3001 3000 3000 3001 3002 3003 3004 3005 3005 3006 3006 3007 3007 3007 3007 3008 3008 3009 3010 3011 3011 3011 3011 3011 3012 3012 3012 3013 3013 3014 3014 3015 3015 3015 3016 3016 3016 3016 3017
3033 3033 3033 3031 3029 3028 3028 3027 3026 3024 3023 3023 3021 3020 3019 3017 3016 3014 3012 3011 3010 3009 3007 3006 3005 3003 3001 3001 2999 2998 2997 2996 2995 2994 2993 2993 2993 2993 2993 2993 2992 2992 2992 2992 2992 2992 2992 2993 2993 2994 2994 2995 2995 2997 2998 2998 2998 2998 2999 3000 3001 3001 3002 3002 3003 3004 3005 3006 3007 3007 3006 3005 3006 3008 3008 3008 3008 3009 3010 3011 3011 3011 3012 3013 3013 3013 3014
3031 3030 3029 3028 3027 3025 3025 3024 3022 3021 3020 3019 3017 3016 3015 3013 3011 3010 3008 3007 3006 3004 3003 3002 3001 2999 2997 2995 2994 2992 2991 2990 2989 2988 2987 2986 2986 2986 2985 2985 2985 2985 2985 2986 2986 2986 2986 2986 2986 2987 2987 2988 2988 2989 2990 2991 2991 2991 2992 2993 2994 2994 2995 2996 2997 2999 3000 3001 3002 3001 3000 3000 3002 3004 3004 3004 3004 3005 3006 3007 3008 3008 3008 3009 3010 3010 3011
3028 3027 3026 3025 3024 3023 3022 3021 3019 3018 3017 3015 3014 3012 3011 3009 3008 3006 3004 3003 3002 3000 2998 2997 2996 2994 2992 2990 2988 2987 2985 2985 2984 2983 2981 2981 2980 2980 2979 2980 2979 2979 2979 2979 2979 2979 2979 2979 2979 2979 2979 2980 2981 2982 2983 2984 2984 2985 2985 2986 2987 2987 2988 2990 2992 2993 2995 2996 2996 2995 2995 2996 2997 2999 3000 3000 3001 3001 3003 3004 3004 3004 3005 3006 3007 3008 3009
3026 3025 3024 3022 3021 3020 3019 3018 3017 3015 3014 3012 3010 3009 3007 3006 3004 3003 3001 3000 2998 2996 2994 2992 2991 2989 2987 2985 2983 2981 2980 2979 2979 2977 2976 2976 2975 2974 2974 2973 2973 2973 2972 2972 2972 2972 2972 2972 2972 2972 2972 2973 2974 2975 2976 2977 2977 2978 2979 2979 2980 2981 2982 2984 2986 2988 2989 2990 2990 2990 2991 2992 2993 2995 2996 2997 2998 2999 3000 3000 3001 3001 3002 3003 3005 3006 3007
3024 3022 3021 3019 3018 3017 3016 3015 3014 3013 3011 3009 3007 3006 3004 3003 3001 3000 2998 2996 2993 2992 2990 2987 2985 2984 2982 2980 2978 2976 2975 2974 2973 2972 2971 2970 2969 2968 2968 2967 2967 2966 2966 2966 2966 2966 2966 2965 2965 2965 2965 2966 2967 2968 2969 2969 2970 2970 2972 2973 2974 2975 2977 2979 2981 2982 2983 2984 2985 2986 2987 2988 2990 2991 2993 2994 2995 2996 2997 2997 2998 2999 3000 3002 3003 3004 3005
3021 3020 3018 3016 3015 3014 3014 3012 3011 3010 3008 3006 3004 3003 3001 3000 2998 2997 2995 2992 2990 2988 2986 2984 2981 2979 2977 2975 2973 2971 2969 2968 2967 2966 2964 2963 2963 2962 2962 2961 2961 2960 2960 2959 2959 2959 2959 2959 2958 2958 2957 2958 2959 2959 2960 2961 2961 2962 2964 2965 2967 2969 2971 2973 2975 2976 2977 2979 2980 2982 2983 2985 2987 2988 2990 2992 2993 2994 2995 2996 2997 2998 2999 3000 3001 3002 3003
3019 3018 3016 3014 3013 3012 3011 3010 3009 3007 3005 3003 3001 3000 2998 2997 2996 2994 2992 2989 2987 2985 2983 2981 2978 2975 2972 2970 2967 2965 2963 2962 2960 2959 2958 2957 2956 2955 2955 2954 2954 2954 2954 2954 2954 2954 2954 2953 2952 2951 2951 2951 2951 2951 2951 2952 2953 2954 2956 2958 2960 2962 2965 2967 2968 2970 2972 2974 2976 2978 2980 2982 2984 2986 2988 2990 2991 2992 2993 2994 2995 2997 2998 2999 3000 3001 3002
3017 3016 3014 3013 3012 3010 3009 3008 3006 3004 3002 3000 2999 2997 2995 2994 2993 2991 2989 2987 2985 2982 2980 2978 2975 2972 2968 2965 2962 2959 2957 2955 2954 2952 2951 2950 2950 2949 2948 2948 2948 2949 2949 2950 2950 2950 2949 2948 2946 2945 2944 2943 2943 2944 2944 2944 2945 2947 2949 2951 2954 2956 2959 2961 2962 2965 2967 2969 2972 2975 2978 2980 2982 2984 2986 2988 2989 2990 2991 2993 2994 2996 2997 2998 2999 3000 3001
3015 3014 3012 3011 3009 3008 3007 3005 3004 3002 3000 2998 2997 2995 2993 2992 2990 2988 2987 2985 2983 2980 2978 2975 2972 2968 2964 2960 2957 2953 2951 2949 2948 2947 2946 2945 2944 2943 2943 2943 2944 2945 2946 2947 2947 2946 2945 2944 2943 2941 2938 2937 2936 2935 2935 2936 2938 2940 2942 2945 2948 2951 2954 2956 2958 2961 2963 2965 2968 2972 2975 2978 2980 2982 2984 2985 2987 2988 2990 2991 2993 2994 2995 2996 2998 2999 3000
3013 3012 3010 3009 3007 3006 3005 3003 3001 3000 2998 2997 2995 2993 2992 2990 2988 2987 2985 2983 2981 2978 2976 2972 2968 2964 2960 2956 2952 2949 2947 2946 2945 2944 2942 2941 2940 2939 2939 2940 2941 2942 2944 2945 2945 2945 2944 2943 2942 2939 2937 2935 2932 2930 2930 2931 2932 2935 2937 2940 2943 2947 2950 2952 2954 2957 2960 2963 2967 2970 2973 2976 2979 2981 2983 2984 2985 2987 2988 2990 2992 2993 2994 2996 2997 2998 2999
3011 3010 3008 3007 3005 3004 3002 3001 3000 2998 2997 2995 2994 2992 2991 2989 2987 2986 2984 2981 2979 2977 2974 2970 2967 2963 2958 2954 2950 2948 2946 2944 2943 2942 2941 2940 2939 2939 2939 2939 2940 2942 2944 2945 2946 2945 2944 2943 2941 2939 2936 2934 2932 2930 2929 2929 2930 2932 2934 2937 2940 2944 2946 2949 2952 2956 2960 2964 2967 2970 2973 2976 2978 2980 2982 2983 2985 2987 2988 2990 2991 2992 2993 2995 2996 2997 2998
3009 3007 3006 3005 3004 3002 3000 2999 2998 2997 2996 2995 2993 2991 2990 2988 2986 2985 2982 2981 2979 2976 2973 2970 2967 2962 2957 2953 2950 2949 2947 2945 2944 2944 2943 2942 2942 2942 2942 2943 2944 2946 2947 2947 2947 2947 2945 2943 2941 2939 2937 2935 2934 2932 2930 2930 2930 2931 2933 2936 2939 2941 2944 2948 2952 2956 2961 2964 2967 2970 2973 2976 2978 2980 2981 2983 2985 2986 2988 2989 2991 2991 2993 2994 2995 2996 2997
3007 3005 3004 3003 3002 3001 3000 2999 2997 2996 2995 2994 2992 2990 2989 2987 2986 2984 2982 2980 2979 2976 2973 2971 2968 2963 2958 2954 2952 2950 2949 2948 2947 2947 2947 2947 2947 2947 2947 2948 2949 2949 2950 2950 2950 2949 2947 2945 2942 2940 2938 2937 2937 2935 2933 2932 2932 2933 2935 2937 2939 2941 2944 2948 2953 2958 2961 2965 2968 2971 2974 2976 2978 2980 2982 2984 2985 2987 2988 2990 2990 2991 2992 2994 2995 2995 2996
3005 3004 3003 3002 3001 3000 2999 2998 2997 2996 2995 2993 2991 2990 2989 2987 2985 2984 2982 2981 2979 2976 2974 2971 2969 2965 2961 2958 2955 2953 2952 2951 2951 2951 2951 2951 2950 2951 2951 2952 2952 2953 2953 2952 2952 2951 2949 2947 2945 2943 2941 2941 2940 2939 2938 2937 2937 2937 2938 2940 2942 2944 2947 2951 2955 2959 2963 2966 2969 2972 2975 2977 2979 2981 2983 2985 2986 2988 2989 2990 2990 2991 2993 2994 2994 2995 2996
3004 3003 3002 3001 3000 2999 2999 2998 2997 2996 2995 2993 2992 2991 2989 2987 2986 2984 2983 2981 2979 2977 2975 2972 2970 2967 2964 2961 2959 2957 2956 2955 2954 2954 2954 2954 2954 2955 2955 2955 2956 2956 2956 2955 2955 2954 2953 2951 2950 2949 2947 2946 2944 2943 2943 2943 2943 2943 2945 2946 2948 2950 2953 2956 2959 2963 2966 2969 2972 2974 2976 2979 2981 2982 2984 2985 2987 2988 2989 2990 2991 2992 2993 2994 2995 2995 2995
3003 3002 3001 3001 3000 2999 2999 2998 2997 2996 2995 2994 2992 2991 2990 2988 2987 2985 2983 2982 2980 2978 2976 2974 2971 2969 2966 2964 2963 2961 2960 2959 2958 2957 2957 2957 2957 2958 2958 2958 2959 2959 2959 2959 2958 2958 2957 2956 2955 2954 2953 2952 2951 2950 2950 2949 2949 2950 2951 2952 2954 2956 2958 2960 2963 2966 2969 2972 2974 2976 2977 2979 2981 2983 2985 2986 2987 2989 2990 2991 2991 2992 2993 2994 2994 2995 2995
3003 3002 3001 3000 3000 3000 2999 2999 2998 2997 2996 2995 2993 2992 2991 2989 2988 2986 2985 2983 2981 2979 2978 2976 2973 2971 2969 2968 2966 2965 2963 2962 2961 2960 2959 2959 2960 2960 2961 2961 2961 2962 2962 2962 2961 2961 2961 2960 2960 2959 2958 2958 2957 2957 2957 2957 2957 2957 2958 2958 2960 2961 2963 2964 2966 2969 2971 2973 2975 2977 2979 2981 2983 2984 2986 2987 2988 2989 2990 2991 2991 2992 2992 2993 2994 2994 2995
3003 3002 3001 3000 3000 3000 3000 2999 2998 2997 2996 2995 2995 2994 2992 2991 2990 2988 2986 2985 2983 2981 2980 2978 2976 2974 2972 2971 2969 2967 2966 2965 2965 2964 2963 2963 2963 2963 2963 2963 2964 2964 2965 2964 2964 2964 2964 2964 2964 2963 2963 2962 2962 2962 2962 2963 2963 2964 2964 2964 2965 2966 2967 2969 2970 2972 2974 2976 2978 2980 2981 2983 2984 2985 2986 2987 2988 2989 2990 2990 2991 2992 2992 2993 2994 2995 2995
3002 3002 3001 3000 3000 3000 3000 2999 2999 2998 2997 2996 2995 2995 2994 2993 2991 2990 2989 2987 2986 2984 2983 2981 2979 2977 2975 2974 2972 2970 2969 2968 2967 2967 2967 2967 2967 2967 2967 2967 2967 2967 2967 2967 2967 2967 2967 2967 2967 2967 2966 2966 2966 2966 2966 2967 2967 2968 2968 2969 2969 2970 2971 2972 2973 2975 2977 2978 2980 2981 2982 2983 2984 2985 2986 2987 2988 2989 2990 2990 2991 2992 2992 2993 2994 2995 2995
3002 3001 3001 3000 3000 3000 3000 2999 2999 2998 2997 2997 2996 2996 2995 2994 2993 2992 2991 2989 2988 2987 2986 2984 2982 2980 2978 2977 2975 2974 2973 2972 2971 2971 2971 2970 2970 2970 2970 2969 2969 2969 2970 2970 2970 2970 2970 2970 2970 2970 2969 2969 2969 2970 2970 2970 2971 2971 2972 2972 2973 2974 2975 2975 2977 2978 2979 2980 2981 2982 2983 2984 2985 2986 2987 2987 2988 2989 2990 2990 2991 2992 2993 2993 2994 2995 2995
3001 3001 3000 3000 3000 3000 3000 2999 2999 2998 2998 2997 2997 2996 2996 2995 2994 2993 2992 2991 2990 2989 2988 2987 2985 2983 2982 2980 2979 2978 2977 2976 2975 2975 2974 2973 2973 2973 2972 2972 2972 2972 2972 2972 2972 2973 2973 2973 2972 2972 2972 2972 2972 2972 2973 2973 2974 2974 2975 2975 2976 2977 2978 2978 2979 2980 2981 2982 2982 2983 2984 2985 2986 2986 2987 2988 2989 2989 2990 2991 2991 2992 2993 2993 2994 2994 2995
3001 3001 3000 3000 3000 3000 3000 2999 2999 2998 2998 2998 2998 2997 2997 2996 2995 2995 2994 2993 2992 2991 2990 2989 2987 2986 2985 2984 2983 2982 2981 2980 2979 2978 2977 2976 2976 2976 2976 2975 2975 2975 2975 2975 2975 2975 2975 2974 2974 2974 2974 2974 2974 2974 2975 2975 2976 2976 2977 2977 2978 2979 2979 2980 2981 2982 2982 2983 2984 2984 2985 2986 2986 2987 2988 2988 2989 2990 2990 2991 2992 2992 2993 2993 2993 2994 2994
3000 3000 3000 3000 2999 3000 2999 2999 2999 2999 2999 2999 2998 2998 2998 2997 2996 2996 2995 2994 2993 2993 2992 2991 2990 2989 2988 2987 2986 2985 2984 2983 2982 2981 2980 2979 2979 2979 2978 2978 2977 2977 2977 2977 2977 2977 2976 2976 2976 2976 2976 2976 2976 2976 2976 2977 2977 2978 2978 2979 2979 2980 2980 2981 2982 2983 2983 2984 2984 2985 2986 2986 2987 2988 2988 2989 2989 2990 2991 2991 2992 2992 2992 2993 2993 2993 2993
2999 2999 3000 2999 2999 2999 2999 2999 2999 2999 2999 2999 2999 2999 2998 2998 2997 2997 2996 2996 2995 2994 2993 2992 2992 2991 2990 2989 2988 2987 2986 2985 2984 2983 2982 2982 2981 2981 2980 2980 2980 2979 2979 2978 2978 2978 2978 2977 2977 2977 2977 2977 2977 2977 2977 2978 2978 2979 2979 2979 2980 2980 2981 2981 2982 2983 2984 2984 2985 2985 2986 2987 2987 2988 2989 2989 2990 2990 2991 2991 2992 2992 2992 2992 2993 2993 2993
2998 2998 2999 2999 2999 2999 2999 2999 2999 2999 2999 2999 2999 2999 2999 2999 2998 2998 2997 2997 2996 2995 2995 2994 2993 2993 2992 2991 2990 2989 2988 2987 2986 2985 2985 2984 2983 2982 2982 2982 2981 2981 2980 2980 2979 2979 2979 2978 2978 2978 2978 2978 2978 2978 2978 2978 2979 2979 2980 2980 2980 2981 2981 2982 2982 2983 2983 2984 2985 2986 2986 2987 2987 2988 2989 2989 2990 2990 2991 2991 2992 2992 2992 2992 2992 2992 2992
2996 2997 2998 2998 2998 2998 2998 2999 2999 2999 2999 3000 3000 2999 2999 2999 2999 2998 2998 2998 2997 2997 2996 2995 2995 2994 2993 2992 2992 2991 2990 2989 2988 2987 2986 2985 2985 2984 2983 2983 2982 2982 2981 2981 2981 2980 2980 2979 2979 2979 2978 2979 2979 2979 2979 2979 2979 2980 2980 2980 2981 2981 2982 2982 2982 2983 2983 2984 2985 2986 2986 2987 2987 2988 2988 2989 2989 2990 2990 2991 2991 2991 2991 2991 2991 2991 2991
2995 2995 2996 2997 2997 2997 2998 2998 2999 2999 2999 2999 2999 2999 2999 2999 2999 2999 2999 2998 2998 2997 2997 2996 2996 2995 2995 2994 2993 2992 2991 2991 2990 2989 2988 2987 2986 2985 2985 2984 2983 2983 2982 2982 2981 2981 2980 2980 2980 2979 2979 2979 2979 2979 2979 2980 2980 2980 2980 2980 2981 2981 2981 2982 2982 2983 2983 2984 2985 2985 2986 2987 2987 2987 2988 2988 2989 2989 2990 2990 2990 2990 2990 2990 2990 2990 2990
2993 2994 2994 2995 2996 2996 2997 2997 2998 2998 2999 2999 2999 2999 2999 2999 2999 2999 2999 2999 2998 2998 2998 2997 2996 2996 2996 2995 2995 2994 2993 2992 2991 2991 2990 2989 2988 2987 2986 2985 2985 2984 2983 2982 2981 2981 2981 2980 2980 2980 2980 2979 2979 2979 2979 2980 2980 2980 2980 2980 2980 2981 2981 2982 2982 2983 2983 2983 2984 2985 2985 2986 2986 2987 2987 2987 2988 2988 2988 2988 2989 2989 2989 2989 2989 2989 2989
2991 2992 2992 2993 2994 2994 2995 2996 2997 2998 2998 2998 2999 2999 2999 2999 2999 2999 2999 2999 2998 2998 2998 2997 2997 2997 2996 2996 2995 2995 2994 2993 2992 2991 2991 2990 2989 2988 2987 2986 2986 2985 2984 2983 2982 2982 2981 2980 2980 2980 2979 2979 2979 2979 2979 2979 2979 2979 2979 2979 2980 2980 2980 2981 2981 2982 2982 2982 2983 2984 2984 2985 2985 2985 2985 2986 2986 2986 2986 2987 2987 2987 2987 2988 2988 2988 2987
2989 2989 2990 2991 2992 2993 2994 2995 2996 2996 2997 2997 2997 2998 2998 2998 2998 2998 2998 2998 2998 2998 2998 2998 2997 2997 2996 2996 2996 2995 2994 2993 2993 2992 2991 2990 2989 2988 2987 2987 2986 2985 2985 2984 2983 2982 2982 2981 2980 2979 2979 2979 2978 2978 2978 2978 2978 2978 2978 2978 2979 2979 2979 2980 2980 2980 2981 2981 2981 2982 2983 2983 2983 2983 2983 2984 2984 2984 2985 2985 2985 2985 2985 2986 2986 2986 2985
2987 2988 2988 2989 2990 2991 2992 2993 2994 2995 2996 2996 2995 2996 2996 2997 2997 2997 2997 2997 2997 2997 2997 2997 2997 2997 2996 2996 2996 2995 2995 2994 2993 2992 2992 2991 2990 2989 2988 2987 2986 2985 2985 2984 2983 2983 2982 2981 2980 2980 2979 2978 2978 2978 2977 2977 2977 2977 2977 2977 2977 2978 2978 2978 2978 2978 2979 2979 2979 2980 2980 2980 2981 2981 2981 2981 2981 2982 2982 2982 2983 2983 2983 2983 2983 2983 2983